Location: Bégole
(43.1574°N, 0.3291°E)
Time: 00:36:43
(UTC+00:00)

deb Delta 89 - Pass Details

Date: 23 February 2024
Orbit: 714 x 2021 km, 97.5° (Epoch: 13 April)

Event Time Altitude Azimuth Distance (km) Brightness Sun altitude
Rises 00:26:04 0° 20° (NNE) 5,469 ? -56.8°
Reaches altitude 10° 00:30:58 10° 37° (NE) 4,480 ? -56.7°
Enters shadow 00:37:24 19° 72° (ENE) 3,717 ? -56.5°
